Location: *
(43.9905°S, 176.4941°W)
Time: 13:55:49
(UTC+00:00)

Cosmos 1025 Rocket - Pass Details

Date: 08 December 2019
Orbit: 593 x 619 km, 82.5° (Epoch: 23 January)

Event Time Altitude Azimuth Distance (km) Brightness Sun altitude
Rises 08:48:34 0° 197° (SSW) 2,893 7.9 -12.9°
Reaches altitude 10° 08:50:54 10° 204° (SSW) 1,985 7.0 -13.2°
Maximum altitude 08:54:58 38° 272° (W) 947 4.3 -13.6°
Drops below altitude 10° 08:59:00 10° 339° (NNW) 1,973 5.3 -14.1°
Enters shadow 08:59:41 - 342° (NNW) 2,233 5.6 -14.1°
